SES-22

Last updated on Sun Jun 21 2026 00:03:08 GMT+0000 (Coordinated Universal Time)

1 52933U 22071A 26171.36449514 .00000100 00000+0 00000+0 0 9996 2 52933 0.0091 34.4553 0001394 43.1756 183.1477 1.00272735 7556
UTC large
Height (km)
Speed (km/s)
/
Latitude / Longitude
Inclination (degrees)
Orbital Period (minutes)
Azimuth
Elevation
Range (km)
Doppler Factor

Next 0 passes for location: London (51.5072 / 0.1276)

No passes found over London.
SES-22